Погода в Знаменке

Россия / Костромская область     58°23′19″N   44°50′37″E
темп.,
°C
ветер,
м/с
пор.,
м/с
влажн.,
%
обл.,
%
осадки,
мм/ч
давл.,
гПа
погр.,
м
25 февраля, чт
чт2500:00−19ю389499 0.0 1029320
03:00−19ю499499 0.0 1026372
06:00−18ююв51097100 1.0 1021460
09:00−17ююв51096100 2.9 1018510
12:00−16ююв5995100 1.7 1016607
15:00−14юв4795100 2.5 1015613
18:00−15юв3796100 0.4 1014370
21:00−18юв259889 0.5 1014121
26 февраля, пт
пт2600:00−19вюв239973 0.1 101483
03:00−20вюв379984 0.1 1014153
06:00−21юв379985 0.0 1013172
09:00−18юв489792 0.0 1011268
12:00−14юв5995100 0.0 1007388
15:00−13юв61295100 1.0 1003476
18:00−12юв61295100 4.2 998610
21:00−12вюв51195100 7.8 997528
27 февраля, сб
сб2700:00−12в4995100 1.9 995459
03:00−13всв4995100 3.3 997465
06:00−15всв41094100 0.8 998466
09:00−15св4993100 0.8 1001510
12:00−13св4891100 0.1 1003621
15:00−12ссв4889100 0.1 1005722
18:00−15ссв3994100 0.1 1007276
21:00−18с379577 0.1 1010176
28 февраля, вс
вс2800:00−20с36970 0.0 1011134
03:00−21с37970 0.0 1013139
06:00−22с26980 0.0 1014110
09:00−19с36950 0.0 1016227
12:00−13с259362 0.0 1016361
15:00−11ссз359079 0.0 1017546
18:00−14ссз239696 0.0 101942
21:00−17с229767 0.0 102020
1 марта, пн
пн100:00−19ссз22970 0.0 102120
03:00−20ссз12980 0.0 102220
06:00−20зсз129925 0.0 102320
09:00−15зюз239730 0.0 1022102
12:00−8юз369781 0.0 1021289
15:00−5юз489591 0.1 1019490
18:00−3зюз51195100 0.1 1015728
21:00−1зюз51296100 0.6 1012763